Location: Malvern Link
(52.1333°N, 2.3000°W)
Time: 05:11:53
(UTC+00:00)

Envisat - Pass Details

Date: 30 January 2022
Orbit: 764 x 765 km, 98.2° (Epoch: 25 May)

Event Time Altitude Azimuth Distance (km) Brightness Sun altitude
Rises 05:06:11 0° 15° (NNE) 3,245 6.5 -25.5°
Reaches altitude 10° 05:08:31 10° 18° (NNE) 2,315 5.7 -25.1°
Maximum altitude 05:13:37 74° 103° (ESE) 801 3.1 -24.4°
Drops below altitude 10° 05:18:41 10° 189° (S) 2,299 5.4 -23.6°
Sets 05:20:59 0° 191° (S) 3,221 6.1 -23.2°
